Location: Cactus School
(34.5700°N, 118.0931°W)
Time: 23:53:00
(UTC-07:00)

Vanguard 2 - Pass Details

Date: 30 April 2024
Orbit: 553 x 2914 km, 32.9° (Epoch: 18 May)

Event Time Altitude Azimuth Distance (km) Brightness Sun altitude
Exits shadow 04:29:15 - 282° (WNW) 5,670 11.5 -18.1°
Reaches altitude 10° 04:32:12 10° 279° (W) 5,021 11.2 -17.6°
Maximum altitude 04:47:35 63° 204° (SSW) 3,104 10.3 -14.9°
Drops below altitude 10° 05:04:45 10° 128° (SE) 5,519 12.2 -11.8°
Sets 05:08:46 0° 125° (SE) 6,360 12.6 -11.0°
